Miscellaneous Local Product
Issued by NWS North Platte, NE

Home | Current Version | Previous Version | Text Only | Print | Product List | Glossary On
Versions: 1 2 3 4 5 6 7 8 9 10 11 12 13 14 15 16 17 18 19 20 21 22 23 24 25 26 27 28 29 30 31 32 33 34 35 36 37 38 39 40 41 42 43 44 45 46 47 48 49 50
000
AXUS43 KLBF 290410
MISLBF


WESTERN AND NORTH CENTRAL NEBRASKA HOURLY WEATHER ROUNDUP
NATIONAL WEATHER SERVICE NORTH PLATTE NE
1100 PM CDT TUE JUL 28 2015

***STATIONS NOT REPORTING VARIABLES SUCH AS SKY/WEATHER OR
PRESSURE ARE PROVIDED BY THE NEBRASKA DEPARTMENT OF
ROADS...RAWS...AND APRS NETWORKS...AND ARE NOT UNDER
NATIONAL WEATHER SERVICE QUALITY CONTROL***

...OBSERVATIONS IN AND NEAR THE EASTERN PANHANDLE OF NEBRASKA...

CITY           SKY/WX    TMP DP  RH WIND       PRES   REMARKS
PINE RIDGE     CLEAR     52  44  74 E5        30.18R
CHADRON        CLEAR     57  41  55 CALM      30.18R
ALLIANCE       CLEAR     57  43  59 CALM      30.20R
SIDNEY         CLEAR     62  38  40 E6        30.21R
BIG SPRINGS      N/A     59  51  75 CALM        N/A
$$

...OBSERVATIONS IN NORTH CENTRAL NEBRASKA...

CITY           SKY/WX    TMP DP  RH WIND       PRES   REMARKS
VALENTINE      CLEAR     66  46  48 N6        30.13R
THEDFORD       CLEAR     61  52  71 CALM      30.14R
AINSWORTH      CLEAR     68  47  46 NW6       30.12R
O`NEILL        CLEAR     64  60  87 NW3       30.08R
ORD            CLEAR     62  57  83 CALM      30.07R
BROKEN BOW     CLEAR     61  51  70 N5        30.10R
SPRINGVIEW       N/A     64  53  68 CALM        N/A
CHAMBERS         N/A     62  52  69 CALM        N/A
EWING            N/A     61  57  87 CALM        N/A
$$

...OBSERVATIONS IN SOUTHWEST NEBRASKA AND FAR NORTHEAST COLORADO...

CITY           SKY/WX    TMP DP  RH WIND       PRES   REMARKS
WRAY           FAIR      67  47  48 CALM      30.19R
HOLYOKE        FAIR      63  54  72 CALM      30.18R
IMPERIAL       CLEAR     65  48  54 NE5       30.15R
OGALLALA       CLEAR     61  51  69 N3        30.16R
NORTH PLATTE   CLEAR     61  52  72 W3        30.13R
MCCOOK         CLEAR     66  52  60 N8        30.10R
LEXINGTON      CLEAR     64  56  74 N8        30.10R
PAXTON           N/A     62  56  80 CALM        N/A
BRADY            N/A     63  51  66 CALM        N/A
CALLAWAY         N/A     59  54  84 N3          N/A
$$

...NORTH PLATTE AREA...

CITY           SKY/WX    TMP DP  RH WIND       PRES   REMARKS
AIRPORT        CLEAR     61  52  72 W3        30.13R
DOWNTOWN         N/A     68  52  56 CALM        N/A
SANDRIDGE        N/A     66  51  58 CALM        N/A
HILLCREST        N/A     70  46  42 NE6         N/A
$$

...SOME WEATHER OBSERVATIONS FROM AROUND THE REGION...

CITY           SKY/WX    TMP DP  RH WIND       PRES   REMARKS
DENVER         MOCLDY    68  38  33 E10       30.27R
LARAMIE        PTCLDY    57  19  22 E6        30.38R
CHEYENNE       CLOUDY    66  26  22 E9        30.31R
SCOTTSBLUFF    PTCLDY    62  44  51 NE9       30.20R
RAPID CITY     CLEAR     59  45  59 NW13      30.16R
PIERRE         CLEAR     67  50  54 W9        30.03R
WINNER         FAIR      66  52  60 W6        30.09R
SIOUX FALLS    CLEAR     67  59  75 CALM      30.03R
OMAHA          CLOUDY    75  64  68 N8        30.00R
GRAND ISLAND   CLEAR     64  58  80 N6        30.06R
KANSAS CITY    PTCLDY    83  72  69 S13       29.91S
WICHITA        PTCLDY    86  70  58 S12       29.93R HX  90
HAYS           CLEAR     73  55  53 N8        30.04R
LIBERAL        CLOUDY    79  61  53 N10       30.06R
GOODLAND       PTCLDY    60  52  74 CALM      30.17R
$$



USA.gov is the U.S. government's official web portal to all federal, state and local government web resources and services.